When you browse on this site, cookies collect data to enhance your experience and personalize the content and advertising you see.
Visit our Privacy Policy to learn more. By continuing to use the site, you agree to this use of cookies and data.
  • In Österreich
  • Länderverzeichnis
  • Für 7 Tage
  • Wassertemperatur
  • Wetterkarte
  • News
  • Widgets
  • user-avatar
    Anmelden

    Stündliche Wetter Semmering

    Heute, 22 Januar, Mittwoch

    Zeit Temperatur Niederschläge Wind Luftdruck Luftfeuchtigkeit
    00:00 -4°C° 0 mm 0 m/S 674 mmHg 60%
    01:00 -5°C° 0 mm 0 m/S 674 mmHg 62%
    02:00 -4°C° 0 mm 0 m/S 673 mmHg 59%
    03:00 -3°C° 0 mm 1 m/S 672 mmHg 56%
    04:00 -3°C° 0 mm 1 m/S 671 mmHg 54%
    05:00 -3°C° 0 mm 1 m/S 671 mmHg 53%
    06:00 -3°C° 0 mm 1 m/S 671 mmHg 52%
    07:00 -3°C° 0 mm 1 m/S 671 mmHg 52%
    08:00 -2°C° 0 mm 1 m/S 671 mmHg 51%
    09:00 -1°C° 0 mm 1 m/S 671 mmHg 50%
    10:00 0°C° 0 mm 1 m/S 671 mmHg 49%
    11:00 +2°C° 0 mm 1 m/S 671 mmHg 50%
    12:00 +3°C° 0 mm 1 m/S 671 mmHg 50%
    13:00 +4°C° 0 mm 1 m/S 671 mmHg 50%
    14:00 +3°C° 0 mm 1 m/S 671 mmHg 57%
    15:00 +2°C° 0 mm 1 m/S 670 mmHg 63%
    16:00 0°C° 0 mm 1 m/S 670 mmHg 70%
    17:00 -3°C° 0 mm 2 m/S 670 mmHg 69%
    18:00 -4°C° 0 mm 2 m/S 670 mmHg 69%
    19:00 -5°C° 0 mm 2 m/S 670 mmHg 68%
    20:00 -4°C° 0 mm 2 m/S 671 mmHg 67%
    21:00 -4°C° 0 mm 2 m/S 671 mmHg 67%
    22:00 -4°C° 0 mm 2 m/S 671 mmHg 66%
    23:00 -4°C° 0 mm 2 m/S 672 mmHg 71%

    Morgen, 23 Januar, Donnerstag

    Zeit Temperatur Niederschläge Wind Luftdruck Luftfeuchtigkeit
    00:00 -2°C° 0 mm 1 m/S 672 mmHg 76%
    01:00 -2°C° 0 mm 1 m/S 672 mmHg 81%
    02:00 -2°C° 0 mm 1 m/S 672 mmHg 84%
    03:00 -3°C° 0 mm 1 m/S 672 mmHg 86%
    04:00 -3°C° 0 mm 1 m/S 671 mmHg 88%
    05:00 -4°C° 0 mm 0 m/S 672 mmHg 89%
    06:00 -4°C° 0 mm 0 m/S 672 mmHg 91%
    07:00 -5°C° 0 mm 0 m/S 672 mmHg 92%
    08:00 -4°C° 0 mm 0 m/S 672 mmHg 88%
    09:00 -3°C° 0 mm 0 m/S 673 mmHg 84%
    10:00 -1°C° 0 mm 1 m/S 673 mmHg 79%
    11:00 0°C° 0 mm 1 m/S 673 mmHg 76%
    12:00 +1°C° 0 mm 1 m/S 673 mmHg 74%
    13:00 -1°C° 0 mm 2 m/S 672 mmHg 71%
    14:00 +1°C° 0 mm 1 m/S 672 mmHg 75%
    15:00 0°C° 0 mm 1 m/S 671 mmHg 78%
    16:00 -1°C° 0 mm 1 m/S 670 mmHg 82%
    17:00 -2°C° 0 mm 1 m/S 670 mmHg 85%
    18:00 -5°C° 0 mm 2 m/S 669 mmHg 88%
    19:00 -6°C° 0 mm 2 m/S 669 mmHg 90%
    20:00 -6°C° 0 mm 2 m/S 669 mmHg 90%
    21:00 -6°C° 0 mm 2 m/S 669 mmHg 90%
    22:00 -6°C° 0 mm 2 m/S 668 mmHg 91%
    23:00 -6°C° 0 mm 2 m/S 668 mmHg 91%

    übermorgen, 24 Januar, Freitag

    Zeit Temperatur Niederschläge Wind Luftdruck Luftfeuchtigkeit
    00:00 -6°C° 0 mm 2 m/S 668 mmHg 92%
    01:00 -6°C° 0 mm 2 m/S 668 mmHg 92%
    02:00 -6°C° 0 mm 2 m/S 667 mmHg 92%
    03:00 -4°C° 0 mm 1 m/S 667 mmHg 92%
    04:00 -4°C° 0 mm 1 m/S 667 mmHg 91%
    05:00 -4°C° 0 mm 1 m/S 667 mmHg 89%
    06:00 -4°C° 0 mm 1 m/S 667 mmHg 87%
    07:00 -5°C° 0 mm 0 m/S 667 mmHg 84%
    08:00 -4°C° 0 mm 0 m/S 667 mmHg 78%
    09:00 -1°C° 0 mm 1 m/S 667 mmHg 71%
    10:00 0°C° 0 mm 1 m/S 668 mmHg 65%
    11:00 +1°C° 0 mm 1 m/S 668 mmHg 62%
    12:00 +2°C° 0 mm 1 m/S 668 mmHg 60%
    13:00 +3°C° 0 mm 1 m/S 668 mmHg 57%
    14:00 +2°C° 0 mm 1 m/S 667 mmHg 62%
    15:00 +1°C° 0 mm 1 m/S 666 mmHg 68%
    16:00 0°C° 0 mm 1 m/S 665 mmHg 73%
    17:00 0°C° 0 mm 1 m/S 665 mmHg 71%
    18:00 -1°C° 0 mm 1 m/S 665 mmHg 70%
    19:00 -2°C° 0 mm 1 m/S 665 mmHg 68%
    20:00 -2°C° 0 mm 1 m/S 665 mmHg 66%
    21:00 -3°C° 0 mm 0 m/S 665 mmHg 64%
    22:00 -3°C° 0 mm 0 m/S 664 mmHg 62%
    23:00 -3°C° 0 mm 0 m/S 664 mmHg 62%

    25 Januar, Samstag

    Zeit Temperatur Niederschläge Wind Luftdruck Luftfeuchtigkeit
    00:00 -3°C° 0 mm 0 m/S 664 mmHg 62%
    01:00 -3°C° 0 mm 0 m/S 664 mmHg 62%
    02:00 -3°C° 0 mm 0 m/S 664 mmHg 62%
    03:00 -3°C° 0 mm 0 m/S 664 mmHg 62%
    04:00 -3°C° 0 mm 0 m/S 663 mmHg 62%
    05:00 -3°C° 0 mm 0 m/S 663 mmHg 64%
    06:00 -3°C° 0 mm 0 m/S 663 mmHg 66%
    07:00 -3°C° 0 mm 0 m/S 663 mmHg 68%
    08:00 -2°C° 0 mm 0 m/S 664 mmHg 67%
    09:00 -2°C° 0 mm 0 m/S 664 mmHg 66%
    10:00 -1°C° 0 mm 0 m/S 664 mmHg 65%
    11:00 0°C° 0 mm 0 m/S 664 mmHg 65%
    12:00 +1°C° 0 mm 0 m/S 664 mmHg 65%
    13:00 +1°C° 0 mm 0 m/S 664 mmHg 65%
    14:00 0°C° 0 mm 0 m/S 664 mmHg 71%
    15:00 0°C° 0 mm 0 m/S 664 mmHg 76%
    16:00 -1°C° 0 mm 0 m/S 663 mmHg 82%
    17:00 -2°C° 0 mm 0 m/S 663 mmHg 82%
    18:00 -2°C° 0 mm 0 m/S 663 mmHg 82%
    19:00 -2°C° 0 mm 0 m/S 663 mmHg 82%
    20:00 -2°C° 0 mm 0 m/S 663 mmHg 82%
    21:00 -2°C° 0 mm 0 m/S 663 mmHg 82%
    22:00 -2°C° 0 mm 0 m/S 663 mmHg 81%
    23:00 -2°C° 0 mm 0 m/S 663 mmHg 81%

    26 Januar, Sonntag

    Zeit Temperatur Niederschläge Wind Luftdruck Luftfeuchtigkeit
    00:00 -2°C° 0 mm 0 m/S 663 mmHg 81%
    01:00 -2°C° 0 mm 0 m/S 663 mmHg 81%
    02:00 -2°C° 0 mm 0 m/S 663 mmHg 81%
    03:00 -2°C° 0 mm 0 m/S 663 mmHg 82%
    04:00 -2°C° 0 mm 0 m/S 663 mmHg 82%
    05:00 -2°C° 0 mm 0 m/S 663 mmHg 83%
    06:00 -2°C° 0 mm 0 m/S 663 mmHg 84%
    07:00 -2°C° 0 mm 0 m/S 663 mmHg 85%
    08:00 -2°C° 0.1 mm 0 m/S 663 mmHg 85%
    09:00 -1°C° 0.1 mm 0 m/S 664 mmHg 84%
    10:00 0°C° 0.1 mm 0 m/S 664 mmHg 84%
    11:00 0°C° 0.2 mm 0 m/S 664 mmHg 85%
    12:00 0°C° 0.2 mm 0 m/S 664 mmHg 86%
    13:00 0°C° 0.2 mm 0 m/S 664 mmHg 87%
    14:00 0°C° 0.3 mm 0 m/S 663 mmHg 90%
    15:00 0°C° 0.3 mm 0 m/S 663 mmHg 93%
    16:00 0°C° 0.3 mm 1 m/S 663 mmHg 96%
    17:00 0°C° 0.1 mm 1 m/S 663 mmHg 96%
    18:00 0°C° 0.1 mm 1 m/S 663 mmHg 96%
    19:00 0°C° 0.1 mm 1 m/S 664 mmHg 96%
    20:00 0°C° 0.1 mm 1 m/S 664 mmHg 96%
    21:00 0°C° 0.1 mm 1 m/S 664 mmHg 96%
    22:00 0°C° 0.1 mm 1 m/S 664 mmHg 96%
    23:00 0°C° 0 mm 1 m/S 664 mmHg 96%

    27 Januar, Montag

    Zeit Temperatur Niederschläge Wind Luftdruck Luftfeuchtigkeit
    00:00 0°C° 0 mm 1 m/S 664 mmHg 95%
    01:00 0°C° 0 mm 1 m/S 664 mmHg 95%
    02:00 -2°C° 0 mm 2 m/S 664 mmHg 94%
    03:00 -2°C° 0 mm 2 m/S 664 mmHg 94%
    04:00 -3°C° 0 mm 2 m/S 664 mmHg 93%
    05:00 -3°C° 0 mm 2 m/S 665 mmHg 93%
    06:00 -3°C° 0 mm 2 m/S 665 mmHg 92%
    07:00 -3°C° 0 mm 2 m/S 665 mmHg 92%
    08:00 0°C° 0 mm 1 m/S 666 mmHg 90%
    09:00 +1°C° 0 mm 1 m/S 666 mmHg 88%
    10:00 +2°C° 0 mm 1 m/S 667 mmHg 86%
    11:00 +3°C° 0 mm 1 m/S 667 mmHg 81%
    12:00 +4°C° 0 mm 1 m/S 667 mmHg 76%
    13:00 +5°C° 0 mm 1 m/S 667 mmHg 71%
    14:00 +4°C° 0 mm 1 m/S 667 mmHg 75%
    15:00 +3°C° 0 mm 1 m/S 666 mmHg 79%
    16:00 +2°C° 0 mm 0 m/S 666 mmHg 83%
    17:00 +2°C° 0 mm 1 m/S 666 mmHg 84%
    18:00 +1°C° 0 mm 1 m/S 666 mmHg 85%
    19:00 0°C° 0 mm 1 m/S 666 mmHg 86%
    20:00 0°C° 0 mm 1 m/S 666 mmHg 85%
    21:00 0°C° 0 mm 1 m/S 665 mmHg 84%
    22:00 0°C° 0 mm 1 m/S 665 mmHg 83%
    23:00 0°C° 0 mm 1 m/S 665 mmHg 82%
    Mehr zeigen